EW9130 Weather Reports


Display with metric or nautical units.
time (UTC)temp
F
wind
direction
speed
MPH
gust
MPH
rain 1hr
in
rain 24hr
in
rain mn
in
humidity
%
barometer
mb
20260510045534 51 360 0.0 0.0 0.00 0.00 0.00 75 1015.6
20260510045030 51 360 0.0 0.0 0.00 0.00 0.00 74 1015.6
20260510044527 52 360 0.0 0.0 0.00 0.00 0.00 73 1015.7
20260510044030 52 360 0.0 0.0 0.00 0.00 0.00 73 1015.8
20260510043525 52 360 0.0 0.0 0.00 0.00 0.00 73 1015.7
20260510043024 53 360 0.0 0.0 0.00 0.00 0.00 71 1015.7
20260510042523 53 360 0.0 0.0 0.00 0.00 0.00 72 1015.7
20260510042022 54 360 0.0 0.0 0.00 0.00 0.00 71 1015.7
20260510041528 54 360 0.0 0.0 0.00 0.00 0.00 71 1015.8
20260510041022 54 360 0.0 0.0 0.00 0.00 0.00 70 1015.7
20260510040522 54 360 0.0 0.0 0.00 0.00 0.00 70 1015.7
20260510040021 54 360 0.0 0.0 0.00 0.00 0.00 70 1015.7
20260510035520 55 360 0.0 0.0 0.00 0.00 0.00 69 1015.7
20260510035022 55 360 0.0 0.0 0.00 0.00 0.00 69 1015.6
20260510034519 55 360 0.0 0.0 0.00 0.00 0.00 70 1015.5
20260510034019 55 360 0.0 0.0 0.00 0.00 0.00 69 1015.5
20260510033517 55 360 0.0 0.0 0.00 0.00 0.00 69 1015.5
20260510033017 56 360 0.0 0.0 0.00 0.00 0.00 68 1015.4
20260510032517 56 360 0.0 0.0 0.00 0.00 0.00 67 1015.4
20260510032016 56 360 0.0 0.0 0.00 0.00 0.00 66 1015.3
20260510031515 56 360 0.0 0.0 0.00 0.00 0.00 66 1015.2
20260510031014 57 360 0.0 0.0 0.00 0.00 0.00 66 1015.1
20260510030514 57 360 0.0 0.0 0.00 0.00 0.00 66 1015.1
20260510030014 57 360 0.0 0.0 0.00 0.00 0.00 66 1014.9
20260510025513 57 360 0.0 0.0 0.00 0.00 0.00 65 1015.0
20260510025016 57 360 0.0 0.0 0.00 0.00 0.00 64 1014.7
20260510024513 58 360 0.0 0.0 0.00 0.00 0.00 64 1014.7
20260510024011 58 360 0.0 0.0 0.00 0.00 0.00 64 1014.5
20260510023511 58 360 0.0 0.0 0.00 0.00 0.00 63 1014.6
20260510023029 59 360 0.0 0.0 0.00 0.00 0.00 63 1014.6
20260510022510 59 360 0.0 0.0 0.00 0.00 0.00 61 1014.5
20260510022009 60 360 0.0 0.0 0.00 0.00 0.00 59 1014.4
20260510021508 61 360 0.0 0.0 0.00 0.00 0.00 54 1014.2
20260510021007 61 360 0.0 0.0 0.00 0.00 0.00 54 1014.1
20260510020507 61 360 0.0 0.0 0.00 0.00 0.00 54 1014.0
20260510020007 61 360 0.0 0.0 0.00 0.00 0.00 54 1013.9
20260510015505 62 360 0.0 0.0 0.00 0.00 0.00 53 1013.9
20260510015005 62 360 0.0 0.0 0.00 0.00 0.00 53 1013.7
20260510014505 62 360 0.0 0.0 0.00 0.00 0.00 52 1013.7
20260510014005 62 360 0.0 0.0 0.00 0.00 0.00 51 1013.7
20260510013509 62 360 0.0 0.0 0.00 0.00 0.00 50 1013.7
20260510013011 62 360 0.0 0.0 0.00 0.00 0.00 50 1013.6
20260510012505 63 360 0.0 0.0 0.00 0.00 0.00 50 1013.7
20260510012004 62 360 0.0 0.0 0.00 0.00 0.00 50 1013.7
20260510011511 62 360 0.0 0.0 0.00 0.00 0.00 49 1013.6
20260510011010 63 360 0.0 0.0 0.00 0.00 0.00 49 1013.7
20260510010504 63 360 0.0 0.0 0.00 0.00 0.00 49 1013.7
20260510010011 63 360 0.0 0.0 0.00 0.00 0.00 48 1013.7
20260510005503 63 360 0.0 0.0 0.00 0.00 0.00 48 1013.7
20260510005003 64 360 0.0 0.0 0.00 0.00 0.00 47 1013.7
20260510004505 64 360 0.0 0.0 0.00 0.00 0.00 47 1013.6
20260510004003 64 360 0.0 0.0 0.00 0.00 0.00 48 1013.6
20260510003501 65 360 0.0 0.0 0.00 0.00 0.00 48 1013.5
20260510003001 65 360 0.0 0.0 0.00 0.00 0.00 48 1013.6
20260510002602 65 360 0.0 0.0 0.00 0.00 0.00 48 1013.5
20260510002059 64 360 0.0 0.0 0.00 0.00 0.00 50 1013.5
20260510001600 64 360 0.0 0.0 0.00 0.00 0.00 50 1013.5
20260510001059 64 360 0.0 0.0 0.00 0.00 0.00 52 1013.5
20260510000559 64 360 0.0 0.0 0.00 0.00 0.00 52 1013.5
20260510000059 64 360 0.0 0.0 0.00 0.00 0.00 52 1013.4
20260509235557 63 360 0.0 0.0 0.00 0.00 0.00 53 1013.4
20260509235056 63 360 0.0 0.0 0.00 0.00 0.00 52 1013.3
20260509234603 63 360 0.0 0.0 0.00 0.00 0.00 52 1013.3
20260509234056 63 360 0.0 0.0 0.00 0.00 0.00 53 1013.3
20260509233554 63 360 0.0 0.0 0.00 0.00 0.00 53 1013.2
20260509233102 63 360 0.0 0.0 0.00 0.00 0.00 53 1013.2
20260509232554 63 360 0.0 0.0 0.00 0.00 0.00 52 1013.1
20260509232054 63 360 0.0 0.0 0.00 0.00 0.00 52 1013.2
20260509231603 63 360 0.0 0.0 0.00 0.00 0.00 53 1013.2
20260509231053 63 360 0.0 0.0 0.00 0.00 0.00 54 1013.1
20260509230555 63 360 0.0 0.0 0.00 0.00 0.00 54 1013.2
20260509230055 64 360 0.0 0.0 0.00 0.00 0.00 53 1013.1
20260509225554 64 360 0.0 0.0 0.00 0.00 0.00 52 1013.1
20260509225056 64 360 0.0 0.0 0.00 0.00 0.00 52 1013.1
20260509224552 64 360 0.0 0.0 0.00 0.00 0.00 52 1013.1
20260509224051 64 360 0.0 0.0 0.00 0.00 0.00 52 1013.0
20260509223550 65 360 0.0 0.0 0.00 0.00 0.00 51 1013.0
20260509223050 65 360 0.0 0.0 0.00 0.00 0.00 50 1013.0
20260509222551 66 360 0.0 0.0 0.00 0.00 0.00 48 1012.9
20260509222049 66 360 0.0 0.0 0.00 0.00 0.00 49 1012.8
20260509221547 65 360 0.0 0.0 0.00 0.00 0.00 50 1012.8
20260509221047 64 360 0.0 1.0 0.00 0.00 0.00 50 1012.9
20260509220547 63 360 0.0 1.0 0.00 0.00 0.00 52 1012.9
20260509220048 63 360 0.0 1.0 0.00 0.00 0.00 53 1012.9
20260509215546 62 360 0.0 2.0 0.00 0.00 0.00 53 1012.9
20260509215050 62 360 0.0 2.0 0.00 0.00 0.00 54 1012.9
20260509214547 63 360 0.0 3.0 0.00 0.00 0.00 53 1012.8
20260509214046 63 360 0.0 3.0 0.00 0.00 0.00 54 1012.8
20260509213545 63 360 0.0 2.0 0.00 0.00 0.00 54 1012.7
20260509213059 63 360 0.0 2.0 0.00 0.00 0.00 55 1012.8
20260509212544 63 360 0.0 1.0 0.00 0.00 0.00 54 1012.7
20260509212044 64 360 0.0 0.0 0.00 0.00 0.00 51 1012.7
20260509211609 64 360 0.0 0.0 0.00 0.00 0.00 51 1012.7
20260509211044 64 360 0.0 2.0 0.00 0.00 0.00 52 1012.6
20260509210544 64 360 0.0 1.0 0.00 0.00 0.00 53 1012.6
20260509210044 63 360 0.0 1.0 0.00 0.00 0.00 54 1012.6
20260509205544 63 360 0.0 1.0 0.00 0.00 0.00 55 1012.7
20260509205043 63 360 0.0 1.0 0.00 0.00 0.00 53 1012.8
20260509204557 64 360 0.0 1.0 0.00 0.00 0.00 52 1012.8
20260509204043 65 360 0.0 2.0 0.00 0.00 0.00 52 1012.7
20260509203543 64 360 0.0 2.0 0.00 0.00 0.00 53 1012.6
20260509203049 64 360 0.0 2.0 0.00 0.00 0.00 53 1012.6
20260509202544 64 360 0.0 3.0 0.00 0.00 0.00 52 1012.6
20260509202041 63 360 0.0 3.0 0.00 0.00 0.00 52 1012.5
20260509201540 63 360 0.0 2.0 0.00 0.00 0.00 51 1012.5
20260509201040 64 360 0.0 2.0 0.00 0.00 0.00 51 1012.5
20260509200540 64 360 0.0 2.0 0.00 0.00 0.00 50 1012.5
20260509200040 63 360 0.0 2.0 0.00 0.00 0.00 51 1012.5
20260509195540 63 360 0.0 2.0 0.00 0.00 0.00 48 1012.5
20260509195039 64 360 0.0 2.0 0.00 0.00 0.00 51 1012.6
20260509194542 64 360 0.0 2.0 0.00 0.00 0.00 49 1012.5
20260509194038 64 360 0.0 1.0 0.00 0.00 0.00 50 1012.5
20260509193539 64 360 0.0 0.0 0.00 0.00 0.00 52 1012.5
20260509193035 63 360 0.0 1.0 0.00 0.00 0.00 51 1012.6
20260509192537 62 360 0.0 1.0 0.00 0.00 0.00 52 1012.6
20260509192035 61 360 0.0 1.0 0.00 0.00 0.00 57 1012.8
20260509191535 60 360 0.0 1.0 0.00 0.00 0.00 60 1012.7
20260509191035 59 360 0.0 0.0 0.00 0.00 0.00 63 1012.8
20260509190535 58 360 0.0 1.0 0.00 0.00 0.00 64 1012.8
20260509190044 58 360 0.0 1.0 0.00 0.00 0.00 63 1012.9
20260509185534 58 360 0.0 0.0 0.00 0.00 0.00 62 1013.0
20260509185034 59 360 0.0 0.0 0.00 0.00 0.00 63 1013.0
20260509184532 59 0.0 0.0 0.00 0.00 0.00 63 1012.9
20260509184031 59 0.0 0.0 0.00 0.00 0.00 62 1012.9
20260509183533 60 0.0 0.0 0.00 0.00 0.00 63 1012.9
20260509183030 60 0.0 0.0 0.00 0.00 0.00 62 1012.8
20260509182526 59 0.0 0.0 0.00 0.00 0.00 63 1012.9
20260509182025 59 0.0 0.0 0.00 0.00 0.00 63 1013.0
20260509181524 59 0.0 0.0 0.00 0.00 0.00 65 1013.0
20260509181023 58 0.0 0.0 0.00 0.00 0.00 67 1013.0
20260509180521 58 0.0 0.0 0.00 0.00 0.00 67 1012.9
20260509180019 58 0.0 0.0 0.00 0.00 0.00 68 1012.9
20260509175519 58 0.0 0.0 0.00 0.00 0.00 68 1012.9
20260509175017 58 0.0 0.0 0.00 0.00 0.00 67 1012.8
20260509174515 59 0.0 0.0 0.00 0.00 0.00 65 1012.8
20260509174013 60 0.0 0.0 0.00 0.00 0.00 65 1012.8
20260509173511 59 0.0 0.0 0.00 0.00 0.00 67 1012.8
20260509173012 59 0.0 0.0 0.00 0.00 0.00 66 1012.8
20260509172509 59 0.0 0.0 0.00 0.00 0.00 68 1012.9
20260509172008 58 0.0 0.0 0.00 0.00 0.00 67 1012.8
20260509171506 59 0.0 0.0 0.00 0.00 0.00 64 1012.8
20260509171005 59 0.0 0.0 0.00 0.00 0.00 65 1012.8
20260509170504 58 0.0 0.0 0.00 0.00 0.00 69 1012.9
20260509170003 57 0.0 0.0 0.00 0.00 0.00 69 1012.9
20260509165503 57 0.0 0.0 0.00 0.00 0.00 67 1012.9
20260509165059 57 0.0 0.0 0.00 0.00 0.00 66 1012.9
20260509164558 57 0.0 0.0 0.00 0.00 0.00 68 1012.8
20260509164057 57 0.0 0.0 0.00 0.00 0.00 68 1012.7
20260509163558 56 0.0 0.0 0.00 0.00 0.00 69 1012.6
20260509163100 56 0.0 0.0 0.00 0.00 0.00 69 1012.6
20260509162553 56 0.0 0.0 0.00 0.00 0.00 70 1012.6
20260509162050 56 0.0 0.0 0.00 0.00 0.00 69 1012.5
20260509161549 56 0.0 0.0 0.00 0.00 0.00 69 1012.4
20260509161048 56 0.0 0.0 0.00 0.00 0.00 68 1012.4
20260509160547 56 0.0 0.0 0.00 0.00 0.00 68 1012.3
20260509160045 56 0.0 0.0 0.00 0.00 0.00 67 1012.4
20260509155545 56 0.0 0.0 0.00 0.00 0.00 67 1012.3
20260509155045 57 0.0 0.0 0.00 0.00 0.00 66 1012.2
20260509154541 57 0.0 0.0 0.00 0.00 0.00 65 1012.2
20260509154039 57 0.0 0.0 0.00 0.00 0.00 64 1012.1
20260509153538 57 0.0 0.0 0.00 0.00 0.00 63 1012.0
20260509153036 58 0.0 0.0 0.00 0.00 0.00 63 1012.0
20260509152537 58 0.0 0.0 0.00 0.00 0.00 62 1011.9
20260509152034 58 0.0 0.0 0.00 0.00 0.00 62 1011.9
20260509151532 58 0.0 0.0 0.00 0.00 0.00 62 1011.9
20260509151030 58 0.0 0.0 0.00 0.00 0.00 65 1011.8
20260509150533 57 0.0 0.0 0.00 0.00 0.00 67 1011.7
20260509150028 57 0.0 0.0 0.00 0.00 0.00 67 1011.6
20260509145527 56 0.0 0.0 0.00 0.00 0.00 67 1011.6
20260509145025 56 0.0 0.0 0.00 0.00 0.00 68 1011.6
20260509144524 56 0.0 0.0 0.00 0.00 0.00 68 1011.6
20260509144023 56 0.0 0.0 0.00 0.00 0.00 69 1011.5
20260509143521 56 0.0 0.0 0.00 0.00 0.00 69 1011.5
20260509143023 56 0.0 0.0 0.00 0.00 0.00 69 1011.4
20260509142517 56 0.0 0.0 0.00 0.00 0.00 69 1011.4
20260509142016 55 0.0 0.0 0.00 0.00 0.00 70 1011.4
20260509141517 55 0.0 0.0 0.00 0.00 0.00 71 1011.3
20260509141013 55 0.0 0.0 0.00 0.00 0.00 70 1011.3
20260509140511 55 0.0 0.0 0.00 0.00 0.00 71 1011.2
20260509140010 55 0.0 0.0 0.00 0.00 0.00 71 1011.3
20260509135508 54 0.0 0.0 0.00 0.00 0.00 71 1011.2
20260509135007 54 0.0 0.0 0.00 0.00 0.00 71 1011.1
20260509134505 54 0.0 0.0 0.00 0.00 0.00 70 1011.1
20260509134004 54 0.0 0.0 0.00 0.00 0.00 70 1011.1
20260509133502 54 0.0 0.0 0.00 0.00 0.00 72 1011.0
20260509133001 54 0.0 0.0 0.00 0.00 0.00 71 1010.9
20260509132600 54 0.0 0.0 0.00 0.00 0.00 72 1010.9
20260509132059 54 0.0 0.0 0.00 0.00 0.00 72 1010.8
20260509131556 54 0.0 0.0 0.00 0.00 0.00 72 1010.8
20260509131058 54 0.0 0.0 0.00 0.00 0.00 72 1010.8
20260509130554 54 0.0 0.0 0.00 0.00 0.00 72 1010.7
20260509130052 54 0.0 0.0 0.00 0.00 0.00 72 1010.6
20260509125550 54 0.0 0.0 0.00 0.00 0.00 71 1010.5
20260509125049 54 0.0 0.0 0.00 0.00 0.00 71 1010.4
20260509124555 54 0.0 0.0 0.00 0.00 0.00 71 1010.3
20260509124047 54 0.0 0.0 0.00 0.00 0.00 71 1010.2
20260509123547 54 0.0 0.0 0.00 0.00 0.00 71 1010.0
20260509123046 54 0.0 0.0 0.00 0.00 0.00 71 1009.9
20260509122541 54 0.0 0.0 0.00 0.00 0.00 71 1009.9
20260509122044 54 0.0 0.0 0.00 0.00 0.00 70 1009.8
20260509121541 54 0.0 0.0 0.00 0.00 0.00 71 1009.6
20260509121039 54 0.0 0.0 0.00 0.00 0.00 70 1009.5
20260509120536 54 0.0 0.0 0.00 0.00 0.00 70 1009.4
20260509120036 54 0.0 0.0 0.00 0.00 0.00 70 1009.3
20260509115533 54 0.0 0.0 0.00 0.00 0.00 70 1009.2
20260509115032 54 0.0 0.0 0.00 0.00 0.00 69 1009.2
20260509114534 54 0.0 0.0 0.00 0.00 0.00 69 1009.1
20260509114032 55 0.0 0.0 0.00 0.00 0.00 70 1009.0
20260509113528 55 0.0 0.0 0.00 0.00 0.00 69 1009.0
20260509113026 55 0.0 0.0 0.00 0.00 0.00 69 1008.9
20260509112524 55 0.0 0.0 0.00 0.00 0.00 69 1008.8
20260509112023 55 0.0 0.0 0.00 0.00 0.00 69 1008.8
20260509111521 55 0.0 0.0 0.00 0.00 0.00 69 1008.7
20260509111020 55 0.0 0.0 0.00 0.00 0.00 68 1008.6
20260509110519 55 0.0 0.0 0.00 0.00 0.00 68 1008.6
20260509110017 55 0.0 0.0 0.00 0.00 0.00 67 1008.4
20260509105518 56 0.0 0.0 0.00 0.00 0.00 66 1008.4
20260509105014 56 0.0 0.0 0.00 0.00 0.00 65 1008.3
20260509104513 56 0.0 0.0 0.00 0.00 0.00 65 1008.2
20260509104011 56 0.0 0.0 0.00 0.00 0.00 64 1008.2
20260509103509 56 0.0 0.0 0.00 0.00 0.00 64 1008.2
20260509103008 56 0.0 0.0 0.00 0.00 0.00 63 1008.1
20260509102509 56 0.0 0.0 0.00 0.00 0.00 63 1008.1
20260509102006 57 0.0 0.0 0.00 0.00 0.00 62 1008.0
20260509101504 57 0.0 0.0 0.00 0.00 0.00 62 1008.0
20260509101002 57 0.0 0.0 0.00 0.00 0.00 62 1008.0
20260509100502 57 0.0 0.0 0.00 0.00 0.00 62 1007.8
20260509100111 57 0.0 0.0 0.00 0.00 0.00 62 1007.8
20260509095559 57 0.0 0.0 0.00 0.00 0.00 62 1007.6
20260509095510 57 0.0 0.0 0.00 0.00 0.00 61 1007.6
20260509095056 57 0.0 0.0 0.00 0.00 0.00 62 1007.4
20260509094556 57 0.0 0.0 0.00 0.00 0.00 62 1007.3
20260509094106 57 0.0 0.0 0.00 0.00 0.00 61 1007.4
20260509093553 57 0.0 0.0 0.00 0.00 0.00 62 1007.3
20260509093051 57 0.0 0.0 0.00 0.00 0.00 62 1007.4
20260509092551 57 0.0 0.0 0.00 0.00 0.00 62 1007.4
20260509092050 57 0.0 0.0 0.00 0.00 0.00 64 1007.3
20260509091549 57 0.0 0.0 0.00 0.00 0.00 63 1007.2
20260509091045 58 0.0 0.0 0.00 0.00 0.00 63 1007.1
20260509090546 58 0.0 0.0 0.00 0.00 0.00 61 1007.1
20260509090042 58 0.0 0.0 0.00 0.00 0.00 60 1007.3
20260509085541 58 0.0 0.0 0.00 0.00 0.00 58 1007.3
20260509085040 59 0.0 0.0 0.00 0.00 0.00 58 1007.5
20260509084543 59 0.0 0.0 0.00 0.00 0.00 58 1007.3
20260509084037 59 0.0 0.0 0.00 0.00 0.00 60 1007.5
20260509083538 60 0.0 0.0 0.00 0.00 0.00 59 1007.5
20260509083035 60 0.0 0.0 0.00 0.00 0.00 56 1007.4
20260509082532 61 0.0 0.0 0.00 0.00 0.00 54 1007.3
20260509082031 61 0.0 0.0 0.00 0.00 0.00 52 1007.3
20260509081529 61 0.0 0.0 0.00 0.00 0.00 51 1007.2
20260509081028 61 0.0 0.0 0.00 0.00 0.00 50 1007.1
20260509080527 61 0.0 0.0 0.00 0.00 0.00 51 1007.1
20260509080037 61 0.0 0.0 0.00 0.00 0.00 51 1006.9
20260509075524 61 0.0 0.0 0.00 0.00 0.00 53 1006.9
20260509075024 61 0.0 0.0 0.00 0.00 0.00 52 1006.9
20260509074521 61 0.0 0.0 0.00 0.00 0.00 52 1006.9
20260509074020 62 0.0 0.0 0.00 0.00 0.00 51 1006.9
20260509073517 63 0.0 0.0 0.00 0.00 0.00 47 1006.9
20260509073036 63 0.0 0.0 0.00 0.00 0.00 44 1006.8
20260509072515 63 0.0 0.0 0.00 0.00 0.00 45 1006.6
20260509072014 63 0.0 0.0 0.00 0.00 0.00 45 1006.4
20260509071512 63 0.0 0.0 0.00 0.00 0.00 45 1006.3
20260509071010 63 0.0 0.0 0.00 0.00 0.00 45 1006.3
20260509070511 63 0.0 0.0 0.00 0.00 0.00 44 1006.2
20260509070008 63 0.0 0.0 0.00 0.00 0.00 44 1006.2
20260509065510 63 0.0 0.0 0.00 0.00 0.00 44 1006.1
20260509065005 62 0.0 0.0 0.00 0.00 0.00 44 1006.1
20260509064504 62 0.0 0.0 0.00 0.00 0.00 45 1005.9
20260509064001 62 0.0 0.0 0.00 0.00 0.00 46 1005.8
20260509063601 62 0.0 0.0 0.00 0.00 0.00 45 1005.8
20260509063059 62 0.0 0.0 0.00 0.00 0.00 45 1005.8
20260509062557 62 0.0 0.0 0.00 0.00 0.00 45 1005.8
20260509062056 61 0.0 0.0 0.00 0.00 0.00 45 1005.7
20260509061558 61 0.0 0.0 0.00 0.00 0.00 46 1005.6
20260509061053 61 0.0 0.0 0.00 0.00 0.00 46 1005.5
20260509060552 61 0.0 0.0 0.00 0.00 0.00 46 1005.3
20260509060051 61 0.0 0.0 0.00 0.00 0.00 46 1005.3
20260509055549 60 0.0 0.0 0.00 0.00 0.00 46 1005.2
20260509055047 60 0.0 0.0 0.00 0.00 0.00 46 1005.2
20260509054548 60 0.0 0.0 0.00 0.00 0.00 46 1005.1
20260509054045 60 0.0 0.0 0.00 0.00 0.00 46 1005.1
20260509053545 60 0.0 0.0 0.00 0.00 0.00 46 1005.0
20260509053045 61 0.0 0.0 0.00 0.00 0.00 45 1004.9
20260509052540 60 0.0 0.0 0.00 0.00 0.00 45 1004.9
20260509052038 60 0.0 0.0 0.00 0.00 0.00 45 1004.9
20260509051539 60 0.0 0.0 0.00 0.00 0.00 46 1004.9
20260509051037 60 360 0.0 0.0 0.00 0.00 0.00 46 1004.8
20260509050537 60 360 0.0 0.0 0.00 0.00 0.00 46 1004.9
20260509050039 60 360 0.0 0.0 0.00 0.00 0.00 46 1005.0